Starlink 3785

operational
NORAD ID: 52375 Int'l Des: 2022-045 Owner: SPXS Country: US Constellation: starlink
LEOCIRCULAR

Über Starlink 3785

Beschreibung wird geladen...

Live-Position

3D-Globus wird geladen...

Nächste Überflüge

Höhenverlauf

Altitude vs Time

uPlot chart will show altitude changes over time

Zweizeiliger Elementsatz

1 52375U 22045AW 25308.56234818 .00001040 00000-0 83402-4 0 9996
2 52375 53.2181 30.8364 0001005 96.4782 263.6324 15.08843540197034
Epoch: 4. Nov. 2025 • Age: 8 hours

Aktueller Status

Höhe 542.3 km
Geschwindigkeit 7.60 km/s
Subsatellitenpunkt 37.24°N, 54.43°E
Startdatum 29. Apr. 2022
Alter 3.5 years
Typ internet

Technische Details

Klassifizierung Payload
Masse 297.00 kg
Trockenmasse 275.00 kg
Gesamtmasse 297.00 kg
Länge 0.20 m
Durchmesser 2.80 m
Spannweite 9.00 m
Form Box + pan
Hersteller SPXS
Bus-Typ Starlink
Phasenstatus In Orbit
Besitzer/Staat SPXS/US

Große Konstellationen

Loading constellations...